Home > Weather > Kalamaria > Past weeks

Flag for Greece Weather for the Past 2 Weeks in Kalamaria, Greece

Now
55 °F

Broken clouds.


Feels Like: 55 °F
Forecast: 55 / 72 °F
Wind: 3 mph from North

Location: Thessaloniki Airport

Current Time: Feb 14, 2016 at 5:12:13 PM

Latest Report: Feb 14, 2016 at 4:50 PM


Visibility: N/A

Pressure: 29.71 "Hg

Humidity: 94%

Dew point: 54 °F

Location of KalamariaLocation

Historic Weather in Kalamaria — Graph

°F

Kalamaria Temperature Yesterday

Maximum temperature yesterday: 64 °F (at 3:50 PM)
Minimum temperature yesterday: 46 °F (at 6:20 AM)
Average temperature yesterday: 54 °F

High & Low Weather Summary for the Past Weeks

 TemperatureHumidityPressure
High64 °F (Jan 30, 3:20 PM)100% (Feb 4, 1:20 AM)30.42 "Hg (Feb 4, 1:20 AM)
Low30 °F (Feb 7, 7:20 AM)22% (Feb 11, 1:20 PM)29.50 "Hg (Feb 13, 3:20 PM)
Average49 °F73%30.05 "Hg
* Reported Jan 30 3:20 PM — Feb 14 3:50 PM, Kalamaria, Weather by CustomWeather, © 2016

Note: Actual official high and low records may vary slightly from our data, if they occured in-between our weather recording intervals... More about our weather records

Advertising

Kalamaria Weather History for the Previous 24 Hours

 ConditionsComfort  
Time TempWeatherWind HumidityBarometerVisibility
3:50 PM
Sun, Feb 14
57 °FBroken clouds.3 mph82%29.71 "Hg6 mi
3:20 PM59 °FBroken clouds.2 mph82%29.71 "Hg6 mi
2:50 PM57 °FBroken clouds.3 mph82%29.71 "Hg6 mi
2:20 PM55 °FBroken clouds.3 mph82%29.71 "Hg6 mi
1:50 PM55 °FLight rain. Broken clouds.2 mph82%29.74 "Hg6 mi
1:20 PM54 °FBroken clouds.3 mph88%29.74 "Hg6 mi
12:50 PM54 °FBroken clouds.2 mph94%29.74 "Hg6 mi
12:20 PM52 °FBroken clouds.2 mph94%29.74 "Hg5 mi
11:50 AM50 °FFog.3 mph94%29.74 "Hg3 mi
11:20 AM48 °FFog.3 mph100%29.77 "Hg3 mi
10:50 AM48 °FCool.3 mph94%29.74 "Hg1 mi
10:20 AM46 °FFog.3 mph100%29.74 "Hg0 mi
9:20 AM46 °FFog.No wind93%29.74 "Hg0 mi
8:50 AM45 °FFog.No wind100%29.74 "Hg0 mi
8:20 AM45 °FFog.2 mph100%29.71 "Hg0 mi
7:50 AM45 °FFog.2 mph100%29.71 "Hg0 mi
7:20 AM46 °FFog.5 mph93%29.71 "Hg1 mi
6:50 AM46 °FRain. Overcast.3 mph93%29.68 "Hg4 mi
6:20 AM48 °FFog.8 mph94%29.68 "Hg4 mi
5:50 AM45 °FRain. Fog.5 mph100%29.68 "Hg3 mi
5:20 AM45 °FRain. Overcast.2 mph93%29.68 "Hg1 mi
4:50 AM45 °FPassing clouds.3 mph100%29.65 "Hg5 mi
3:50 AM46 °FPassing clouds.3 mph93%29.68 "Hg5 mi
2:50 AM45 °FPassing clouds.6 mph93%29.68 "Hg5 mi
2:20 AM45 °FPassing clouds.5 mph100%29.68 "Hg5 mi
1:50 AM45 °FPassing clouds.6 mph100%29.68 "Hg5 mi
1:20 AM45 °FFog.5 mph100%29.65 "Hg4 mi
12:50 AM45 °FFog.5 mph100%29.68 "Hg4 mi
12:20 AM48 °FCool.1 mph94%29.65 "Hg1 mi
11:50 PM
Sat, Feb 13
50 °FFog.2 mph94%29.65 "Hg0 mi
11:20 PM50 °FFog.1 mph100%29.65 "Hg0 mi
10:50 PM50 °FFog.1 mph100%29.65 "Hg0 mi
10:20 PM50 °FRain. Overcast.2 mph94%29.65 "Hg1 mi
9:50 PM48 °FRain. Overcast.2 mph100%29.65 "Hg1 mi
9:20 PM50 °FRain. Overcast.3 mph94%29.62 "Hg1 mi
8:50 PM52 °FCool.No wind94%29.62 "Hg1 mi
8:20 PM54 °FPartly cloudy.No wind94%29.62 "HgN/A
7:50 PM54 °FPartly cloudy.2 mph94%29.59 "HgN/A
7:20 PM55 °FRain. Mostly cloudy.3 mph94%29.59 "Hg5 mi
6:50 PM55 °FLight rain. Mostly cloudy.3 mph94%29.59 "Hg4 mi
6:20 PM55 °FRain. Mostly cloudy.12 mph94%29.59 "Hg2 mi
5:50 PM57 °FRain. Broken clouds.17 mph82%29.56 "Hg2 mi
5:20 PM63 °FLight rain. Broken clouds.12 mph59%29.53 "Hg4 mi
Weather by CustomWeather, © 2016

See weather overviewHow to use our weather pages